All Starts

   

As of 06.23.17

Joel Rosario

Add To
Virtual Stable
Back to Profile

All Starts in Thoroughbred Races

Track Date Race Race Type Purse Horse Name Finish Chart Video
GP 01/01/2015 6 Maiden Special Weight $45,000 Bishop's Pond 3
GP 01/01/2015 7 Starter Optional Claiming $29,000 Rose Brier 2
GP 01/07/2015 2 Claiming $28,000 Greek God 8
GP 01/07/2015 3 Maiden Special Weight $45,000 Charming Delilah 3
GP 01/07/2015 5 Maiden Claiming $32,000 Rachel's Temper 8
GP 01/07/2015 7 Maiden Special Weight $36,000 Eddie G 7
GP 01/07/2015 8 Maiden Claiming $32,000 Arella Princess 1
GP 01/07/2015 9 Miami Shores Handicap $60,000 Best Behavior 2
GP 01/08/2015 4 Maiden Special Weight $45,000 River Date 2
GP 01/08/2015 5 Claiming $28,000 Lady Midnight 2
GP 01/08/2015 10 Maiden Claiming $32,000 Tricoastal 7
GP 01/09/2015 9 Claiming $38,000 Tattenham 6
GP 01/09/2015 10 Starter Optional Claiming $30,000 Trigger Finger 5
GP 01/10/2015 1 Maiden Claiming $26,000 Bigger Than Boss 2
GP 01/10/2015 3 Allowance Optional Claiming $50,000 Dawly 4
GP 01/10/2015 4 Maiden Special Weight $45,000 Xtra Spice 2
GP 01/10/2015 6 Starter Optional Claiming $35,000 King of Bay 12
GP 01/10/2015 7 Hal's Hope Stakes - Gr. 3 $150,000 Lea 1
GP 01/10/2015 8 Marshua's River Stakes - Gr. 3 $150,000 Why Katherine 3
GP 01/10/2015 9 Allowance Optional Claiming $50,000 Cabo Queen 5
GP 01/10/2015 10 Ft. Lauderdale Stakes - Gr. 2 $200,000 Za Approval 4
GP 01/10/2015 11 Maiden Special Weight $45,000 Wilshire Heir 10
GP 01/11/2015 1 Starter Optional Claiming $19,000 Bluegrass Jam 2
GP 01/11/2015 4 Maiden Special Weight $45,000 Fitzgerald 3
GP 01/11/2015 5 Maiden Special Weight $45,000 A. P. Sonata 4
GP 01/11/2015 7 Starter Optional Claiming $35,000 Jester and Me 3
GP 01/14/2015 1 Maiden Special Weight $45,000 Yolo Kitten 3
GP 01/14/2015 2 Claiming $18,000 Bullheaded Lady 3
GP 01/14/2015 3 Claiming $23,000 Charlie's Picnic 4
GP 01/14/2015 7 Maiden Claiming $21,000 Colonel Jordan 6
GP 01/14/2015 8 Allowance Optional Claiming $50,000 Three Alarm Fire 2
GP 01/14/2015 9 Allowance Optional Claiming $48,000 Glasgow Gailes 8
GP 01/15/2015 1 Claiming $24,000 Political Justice 3
GP 01/15/2015 4 Maiden Claiming $32,000 Curlin's Gem 1
GP 01/15/2015 5 Allowance Optional Claiming $50,000 Quiet Hour 4
GP 01/15/2015 7 Maiden Claiming $21,000 Race and Shine 1
GP 01/15/2015 8 Starter Optional Claiming $24,000 Electro Peg 5
GP 01/15/2015 9 Maiden Special Weight $45,000 T'as d'Beaux Yeux 12
GP 01/16/2015 4 Claiming $18,000 Time's Concern 6
GP 01/16/2015 7 Allowance Optional Claiming $48,000 Papy 4
GP 01/16/2015 8 Allowance Optional Claiming $48,000 Silverpocketsfull 2
GP 01/16/2015 9 Allowance Optional Claiming $52,000 Joelito 4
GP 01/16/2015 10 Claiming $26,000 Sammy Alexander (GB) 8
GP 01/17/2015 2 Maiden Special Weight $45,000 Tapit Like That 10
GP 01/17/2015 4 Allowance $48,000 Breakeven Analysis 4
GP 01/17/2015 5 Florida Sunshine Millions Sprint Stakes $100,000 Sam Sparkle 6
GP 01/17/2015 7 Allowance Optional Claiming $50,000 Michael With Us 13
GP 01/17/2015 8 Florida Sunshine Millions Distaff Stakes $150,000 Devil's Cave 9
GP 01/17/2015 9 Florida Sunshine Millions Filly and Mare Turf Stakes $100,000 Awesome Flower 3
GP 01/17/2015 10 Florida Sunshine Millions Classic Stakes $250,000 Wildcat Red 5
GP 01/17/2015 11 Maiden Special Weight $45,000 Summer Dancer 9
GP 01/18/2015 7 Maiden Special Weight $45,000 Purrfect Tapit 7
GP 01/18/2015 8 Maiden Special Weight $45,000 Daring Duchess 2
GP 01/18/2015 9 Claiming $26,000 Vipera 1
GP 01/18/2015 10 Allowance $48,000 Silvery Starlet 3
GP 01/19/2015 1 Starter Optional Claiming $18,000 Miss Darla 1
GP 01/19/2015 2 Maiden Claiming $21,000 Wise Move 4
GP 01/19/2015 7 Maiden Claiming $36,000 Jademarie 1
GP 01/19/2015 10 Allowance Optional Claiming $48,000 Jay Eye See 3
GP 01/19/2015 11 Claiming $23,000 Stars Collide 4
GP 01/22/2015 2 Allowance Optional Claiming $48,000 Little Miss Julia 4
GP 01/22/2015 5 Maiden Claiming $26,000 Zipi Zape 5
GP 01/22/2015 9 Claiming $26,000 Little Daniella 6
GP 01/23/2015 5 Maiden Special Weight $45,000 Street Fashion 8
GP 01/24/2015 3 Maiden Special Weight $45,000 C'Mon Boys (GB) 10
GP 01/24/2015 4 Allowance Optional Claiming $48,000 Gorgeous Bird 1
GP 01/24/2015 5 Maiden Claiming $26,000 Get Air Lex 2
GP 01/24/2015 6 Maiden Special Weight $45,000 Thirst for Glory 6
GP 01/24/2015 7 Hutcheson Stakes - Gr. 3 $150,000 Richard the Great 4
GP 01/24/2015 9 Lambholm South Holy Bull Stakes - Gr. 2 $400,000 High Noon Rider 9
GP 01/24/2015 10 Forward Gal Stakes - Gr. 2 $200,000 Seduire 7
GP 01/24/2015 11 Kitten's Joy Stakes $100,000 Courtier 2
GP 01/25/2015 5 Maiden Claiming $26,000 Little Baltar 1
GP 01/25/2015 7 Claiming $17,000 Dos de Bastos 5
GP 01/25/2015 8 Maiden Special Weight $45,000 Casco Passage 8
GP 01/25/2015 9 Allowance $58,000 Richies Sweetheart 3
GP 01/25/2015 10 Allowance Optional Claiming $50,000 Dancing House 1
OTC 01/27/2015 2 OBS Sprint Stakes $50,000 Happy to Go 2 N/A
OTC 01/27/2015 3 OBS Sprint Stakes $50,000 Tiger of Wales 5 N/A
OTC 01/27/2015 4 OBS Championship Stakes $100,000 Magnificent Margo 7 N/A
OTC 01/27/2015 5 OBS Championship Stakes $100,000 Firespike 1 N/A
GP 01/28/2015 1 Starter Optional Claiming $29,000 Dawly 2
GP 01/28/2015 7 Maiden Claiming $40,000 Moon Over Cuzco 1
GP 01/28/2015 9 Claiming $28,000 Arch Avenger 1
GP 01/28/2015 10 Starter Optional Claiming $29,000 Thundering Gale 9
GP 01/29/2015 6 Maiden Claiming $22,000 Eddie G 4
GP 01/29/2015 7 Starter Optional Claiming $30,000 Trigger Finger 4
GP 01/29/2015 9 Starter Optional Claiming $19,000 Charge 7
GP 01/29/2015 11 Maiden Claiming $32,000 Strike Em Down 3
GP 01/30/2015 3 Maiden Claiming $32,000 Ocean Foam 7
GP 01/30/2015 4 Claiming $28,000 Sister in Arms 10
GP 01/30/2015 5 Maiden Claiming $36,000 Biamonte 3
GP 01/30/2015 6 Claiming $23,000 C D Gold 3
GP 01/30/2015 8 Claiming $26,000 Zia Zia Zia 6
GP 01/30/2015 10 Claiming $32,000 Scoria 4
GP 01/31/2015 2 Maiden Special Weight $45,000 Cali Thirty Seven 5
GP 01/31/2015 5 Maiden Special Weight $45,000 My Little Annas (IRE) 6
GP 01/31/2015 7 Allowance $48,000 Melville 9
GP 01/31/2015 9 H. Allen Jerkens Stakes $75,000 Royal Blessing 7
GP 01/31/2015 10 Maiden Special Weight $45,000 Butterfly Strike 4
GP 01/31/2015 11 Claiming $26,000 Bowman's Causeway 14
GP 02/01/2015 4 Maiden Claiming $32,000 Dixie One 4
GP 02/01/2015 5 Maiden Special Weight $45,000 Adriana's Dream 6
GP 02/01/2015 11 Maiden Special Weight $45,000 Killarney Rose 3
GP 02/04/2015 2 Allowance Optional Claiming $48,000 Marine One 4
GP 02/04/2015 9 Allowance Optional Claiming $50,000 Cabo Queen 8
GP 02/05/2015 3 Starter Optional Claiming $24,000 Playing a Joke 3
GP 02/05/2015 4 Claiming $23,000 Bullheaded Lady 6
GP 02/05/2015 10 Allowance Optional Claiming $48,000 Sookie 5
GP 02/06/2015 5 Claiming $26,000 Vipera 1
GP 02/06/2015 9 Allowance Optional Claiming $48,000 Makin' Sense 13
GP 02/07/2015 2 Allowance Optional Claiming $48,000 Curlin's Gem 3
GP 02/07/2015 3 Texas Glitter Stakes $75,000 Souper Colossal 1
GP 02/07/2015 4 Maiden Special Weight $45,000 Arbitrator 4
GP 02/07/2015 5 Gulfstream Park Turf Sprint Stakes $75,000 Prudhoe Bay 4
GP 02/07/2015 6 Maiden Special Weight $45,000 Parrandero 9
GP 02/07/2015 7 Maiden Special Weight $45,000 Irish Cat 7
GP 02/07/2015 8 Allowance Optional Claiming $52,000 Triple Charm (GB) 8
GP 02/07/2015 9 Maiden Special Weight $45,000 Unbridled Juan 3
GP 02/07/2015 10 Suwannee River Stakes - Gr. 3 $150,000 Rosalind 2
GP 02/07/2015 11 Fred W. Hooper Stakes - Gr. 3 $100,000 Mosler 9
GP 02/07/2015 12 Gulfstream Park Turf Handicap - Gr. 1 $300,000 Imagining 8
GP 02/07/2015 13 Donn Handicap - Gr. 1 $500,000 Lea 2
GP 02/08/2015 3 Claiming $17,000 Dos de Bastos 3
GP 02/08/2015 4 Allowance Optional Claiming $48,000 Cool Man Walkin 3
GP 02/08/2015 5 Maiden Special Weight $45,000 Xtra Spice 2
GP 02/08/2015 6 Maiden Claiming $36,000 Queen of the Cup 7
GP 02/08/2015 7 Allowance Optional Claiming $52,000 Partyallnightlong 7
GP 02/08/2015 8 Maiden Special Weight $45,000 Castellani 9
GP 02/08/2015 9 Allowance Optional Claiming $48,000 Watchyourownbobber 1
GP 02/08/2015 11 Allowance Optional Claiming $48,000 Arella Princess 5
GP 02/08/2015 12 Allowance Optional Claiming $48,000 Papy 4
GP 02/08/2015 13 Maiden Special Weight $45,000 Perfect Flute 1
GP 02/11/2015 6 Maiden Claiming $16,000 Wise Move 2
GP 02/11/2015 7 Allowance Optional Claiming $48,000 Electro Peg 4
GP 02/11/2015 9 Allowance Optional Claiming $50,000 Rubindy 1
GP 02/12/2015 4 Claiming $23,000 Tex Appeal 1
GP 02/12/2015 7 Claiming $23,000 Race and Shine 5
GP 02/12/2015 8 Starter Optional Claiming $28,000 Trigger Finger 1
SA 02/16/2015 2 Allowance Optional Claiming $58,000 Valley Cat 3
SA 02/16/2015 3 Allowance Optional Claiming $58,000 Honey Ride 2
SA 02/16/2015 5 Allowance Optional Claiming $58,000 Market Quote 6
SA 02/16/2015 6 Claiming $16,000 Matzoh Ball Magic 2
SA 02/16/2015 7 Buena Vista Stakes - Gr. 2 $200,000 La Tia 2
SA 02/16/2015 8 Starter Optional Claiming $30,000 Diamond Cut 6
SA 02/16/2015 9 Maiden Special Weight $56,000 Fort Cady 8
GP 02/19/2015 1 Starter Optional Claiming $19,000 Political Justice 1
GP 02/19/2015 4 Maiden Special Weight $36,000 Tiger of Wales 3
GP 02/19/2015 6 Maiden Claiming $22,000 Tricoastal 3
GP 02/19/2015 8 Maiden Special Weight $45,000 Crowned Heart (IRE) 7
GP 02/19/2015 10 Starter Optional Claiming $30,000 Talbot County 7
GP 02/20/2015 8 Starter Optional Claiming $35,000 Arch Avenger 8
GP 02/20/2015 9 Allowance Optional Claiming $38,000 Little Miss Julia 2
GP 02/20/2015 10 Maiden Claiming $36,000 Deep Consideration 2
GP 02/20/2015 11 Claiming $32,000 Breakeven Analysis 6
GP 02/21/2015 1 Allowance $48,000 Los Borrachos 2
GP 02/21/2015 2 Maiden Claiming $32,000 Dixie One 6
GP 02/21/2015 4 Rampart Stakes - Gr. 3 $100,000 Thank You Marylou 7
GP 02/21/2015 5 The Very One Stakes - Gr. 3 $150,000 Riposte (GB) 2
GP 02/21/2015 7 Ladies Turf Sprint Stakes $75,000 What a Party 12
GP 02/21/2015 8 Davona Dale Stakes - Gr. 2 $200,000 Puca 4
GP 02/21/2015 10 Canadian Turf Stakes - Gr. 3 $150,000 Long On Value 1
GP 02/21/2015 11 Besilu Stables Fountain of Youth Stakes - Gr. 2 $400,000 Gorgeous Bird 5
GP 02/21/2015 12 Maiden Special Weight $45,000 Tweet Kitten 5
GP 02/22/2015 1 Maiden Claiming $26,000 Eddie G 6
GP 02/22/2015 3 Claiming $17,000 Dos de Bastos 1
GP 02/22/2015 6 Claiming $23,000 Stars Collide 5
GP 02/22/2015 7 Maiden Special Weight $45,000 Dream of Mine 7
GP 02/22/2015 8 Maiden Special Weight $45,000 Bishop's Pond 5
GP 02/22/2015 9 Allowance $48,000 Achnaha (IRE) 2
GP 02/22/2015 10 Allowance Optional Claiming $50,000 Top Billing 4
GP 02/22/2015 12 Claiming $26,000 Kitten in May 2
GP 02/25/2015 1 Maiden Special Weight $45,000 Atlantic Island 1
GP 02/25/2015 6 Claiming $25,000 Race and Shine 1
GP 02/25/2015 9 Starter Optional Claiming $28,000 St. Borealis 6
GP 02/25/2015 10 Allowance Optional Claiming $50,000 Sam Sparkle 1
GP 02/27/2015 1 Starter Optional Claiming $19,000 Miss Darla 4
GP 02/27/2015 5 Claiming $26,000 One Eyed Candyride 2
GP 02/27/2015 8 Claiming $30,000 Political Courage 9
GP 02/27/2015 10 Claiming $26,000 Little Daniella 3
GP 02/28/2015 5 Herecomesthebride Stakes $150,000 Arella Princess 4
GP 03/01/2015 2 Claiming $23,000 Bluegrass Jam 3
GP 03/01/2015 3 Starter Optional Claiming $24,000 Vipera 2
GP 03/01/2015 6 Maiden Special Weight $45,000 Leanne N Susan 6
GP 03/01/2015 10 Maiden Special Weight $45,000 Sharpsburg 11
GP 03/01/2015 11 Allowance Optional Claiming $48,000 Curlin's Gem 7
GP 03/01/2015 12 Maiden Claiming $36,000 Biamonte 3
GP 03/05/2015 6 Maiden Special Weight $45,000 Prima Storm 3
GP 03/05/2015 7 Claiming $17,000 Tiz Bobby 4
GP 03/05/2015 8 Maiden Claiming $21,000 Rose Graciela 4
GP 03/05/2015 9 Starter Optional Claiming $28,000 My Little Darlings 2
GP 03/05/2015 11 Maiden Claiming $22,000 Wildcat Runner 2
GP 03/06/2015 3 Islamorada Handicap $60,000 Tradesman 2
GP 03/06/2015 5 Claiming $24,000 Rome Burned 4
GP 03/06/2015 6 Allowance Optional Claiming $52,000 Purple Egg 8
GP 03/06/2015 9 Allowance Optional Claiming $50,000 Runway Giant 8
GP 03/06/2015 10 Allowance Optional Claiming $48,000 Momameamaria 5
GP 03/06/2015 11 Maiden Special Weight $45,000 Generous Kitten 11
TAM 03/07/2015 6 Allowance Optional Claiming $28,000 Turnout 3
TAM 03/07/2015 7 Allowance Optional Claiming $28,000 Songsational 1
TAM 03/07/2015 8 Challenger Stakes $60,000 Old Time Hockey 2
TAM 03/07/2015 9 Florida Oaks - Gr. 3 $200,000 Get Down Kitten 9
TAM 03/07/2015 10 Hillsborough Stakes - Gr. 3 $150,000 Filimbi 5
GP 03/08/2015 1 Claiming $16,000 Lure of the South 2
GP 03/08/2015 5 Maiden Special Weight $45,000 Daring Duchess 1
GP 03/08/2015 10 Allowance Optional Claiming $48,000 Picolata 12
GP 03/08/2015 11 Allowance Optional Claiming $52,000 Kitten's Dumplings 6
GP 03/08/2015 12 Maiden Special Weight $45,000 Voyage Beyond 11
GP 03/11/2015 8 Maiden Special Weight $45,000 Diamond Eye 5
GP 03/11/2015 9 Maiden Special Weight $45,000 Robe 5
GP 03/11/2015 10 Allowance Optional Claiming $48,000 Little Baltar 2
GP 03/12/2015 6 Allowance Optional Claiming $50,000 Bikini Beauty 6
GP 03/12/2015 7 Starter Optional Claiming $28,000 Seventhfleethumor 2
GP 03/12/2015 9 Maiden Claiming $36,000 Awesome Prizes 9
GP 03/13/2015 4 Claiming $26,000 Dreaming of Danny 2
GP 03/13/2015 7 Starter Optional Claiming $35,000 Roman Approval 3
GP 03/14/2015 1 Claiming $26,000 Kitten in May 2
GP 03/14/2015 4 Any Limit Stakes $75,000 Perchance 5
GP 03/14/2015 5 Allowance Optional Claiming $50,000 Ghareeb 4
GP 03/14/2015 6 Claiming $23,000 Broadway Zen 8
GP 03/14/2015 7 Allowance Optional Claiming $48,000 Miss Holicong 6
GP 03/14/2015 8 Maiden Special Weight $45,000 Dreaming of Gold 2
GP 03/14/2015 9 Maiden Special Weight $45,000 Donworth 1
GP 03/14/2015 11 Silks Run Stakes $75,000 Amelia's Wild Ride 2
GP 03/14/2015 12 Maiden Special Weight $45,000 Fundamental 5
SA 03/15/2015 6 Claiming $32,000 Cruisingtheharbor 7
SA 03/15/2015 7 Santa Ana Stakes - Gr. 2 $200,000 Rosalind 5
SA 03/15/2015 8 Allowance Optional Claiming $58,000 Honey Ride 1
SA 03/15/2015 9 Maiden Special Weight $56,000 Redheads Rule 4
GP 03/18/2015 1 Starter Optional Claiming $36,000 Thirtysilverpieces 3
GP 03/18/2015 2 Maiden Special Weight $45,000 Ferlin Husky 3
GP 03/18/2015 6 Claiming $26,000 Kings Over 2
GP 03/18/2015 7 Starter Optional Claiming $28,000 Claiming Victory 5
GP 03/18/2015 9 Captiva Island Handicap $60,000 Free as a Bird 1
GP 03/18/2015 10 Starter Optional Claiming $29,000 Dreams Cut Short 3
GP 03/19/2015 2 Maiden Claiming $26,000 T'as d'Beaux Yeux 5
GP 03/19/2015 8 Starter Optional Claiming $35,000 Great Cross 7
GP 03/19/2015 10 Maiden Claiming $36,000 Mexican Groove 1
GP 03/20/2015 2 Maiden Claiming $36,000 Biamonte 3
GP 03/20/2015 3 Starter Optional Claiming $19,000 Miss Darla 4
GP 03/20/2015 4 Claiming $26,000 Tex Appeal 3
GP 03/20/2015 5 Maiden Special Weight $45,000 Samantha Nicole 6
TP 03/21/2015 9 Allowance Optional Claiming $30,500 Arctic Slope 3
TP 03/21/2015 10 Bourbonette Oaks - Gr. 3 $150,000 Sweet Success 2
MEY 03/28/2015 9972 Group 1 $2,000,000 Big Macher 5 N/A N/A
MEY 03/28/2015 9975 Group 1 $10,000,000 Lea 3 N/A N/A
KEE 04/03/2015 1 Maiden Special Weight $58,000 Miss Cobblestone 2
KEE 04/03/2015 5 Allowance $60,000 Kathballu 2
KEE 04/03/2015 6 Allowance $60,000 Los Borrachos 2
AQU 04/04/2015 2 Allowance Optional Claiming $75,000 Free Mugatu 2
AQU 04/04/2015 3 Maiden Special Weight $80,000 Fitzgerald 3
AQU 04/04/2015 4 Allowance $82,000 Pax in Terra 5
AQU 04/04/2015 6 Allowance $82,000 Sassicaia 5
AQU 04/04/2015 7 Allowance Optional Claiming $75,000 Wildniteattheopera 10
AQU 04/04/2015 8 Gazelle Stakes - Gr. 2 $300,000 Condo Commando 1
AQU 04/04/2015 9 Bay Shore Stakes - Gr. 3 $300,000 Lord Nelson 2
AQU 04/04/2015 10 Twinspires.com Wood Memorial Stakes - Gr. 1 $1,000,000 Frosted 1
AQU 04/04/2015 11 Carter Handicap - Gr. 1 $400,000 Clearly Now 7
KEE 04/08/2015 1 Maiden Special Weight $50,000 Love the Kitten 2
KEE 04/08/2015 2 Claiming $23,000 Ocean Alley 3
KEE 04/08/2015 5 Allowance $60,000 Radiator (GB) 1
KEE 04/08/2015 6 Maiden Special Weight $58,000 Boone Station 9
KEE 04/08/2015 7 Allowance $60,000 Genre 2
KEE 04/08/2015 8 Allowance Optional Claiming $62,000 Top Billing 2
KEE 04/09/2015 3 Allowance $68,000 Daring Dancer 4
KEE 04/09/2015 6 Maiden Special Weight $58,000 Right Decision 9
KEE 04/10/2015 2 Claiming $27,000 Oaks (BRZ) 3
KEE 04/10/2015 3 Maiden Claiming $20,000 Parabens 5
KEE 04/10/2015 6 Allowance Optional Claiming $64,000 Dancing House 1
KEE 04/10/2015 7 Allowance $60,000 Perfect Flute 5
KEE 04/10/2015 9 Maker's 46 Mile Stakes - Gr. 1 $300,000 Long On Value 3
KEE 04/11/2015 2 Maiden Special Weight $58,000 Dreaming of Gold 2
KEE 04/11/2015 3 Claiming $27,000 Jumpin Frac Flash 5
KEE 04/11/2015 5 Ben Ali Stakes - Gr. 3 $150,000 Golden Ticket 5
KEE 04/11/2015 7 Giant's Causeway Stakes $100,000 Free as a Bird 4
KEE 04/11/2015 8 Maiden Special Weight $58,000 Flying Jibe 2
KEE 04/11/2015 9 Jenny Wiley Stakes - Gr. 1 $300,000 Filimbi 2
KEE 04/11/2015 10 Coolmore Lexington Stakes - Gr. 3 $250,000 Donworth 2
KEE 04/11/2015 11 Allowance $60,000 Indebted 3
KEE 04/12/2015 2 Allowance $62,000 It'll Be Fine 4
KEE 04/12/2015 4 Maiden Claiming $26,000 Fracula 1
KEE 04/12/2015 5 Appalachian S. Presented by Japan Racing Association - Gr. 3 $125,000 Sunset Glow 3
KEE 04/12/2015 6 Maiden Special Weight $58,000 Scrapantics 5
KEE 04/12/2015 7 Maiden Special Weight $58,000 Marshtini 8
KEE 04/12/2015 9 Allowance $62,000 V V Goodnight 7
KEE 04/15/2015 2 Maiden Special Weight $50,000 Back At the Ranch 2
KEE 04/15/2015 3 Allowance $62,000 Slip By 9
KEE 04/15/2015 6 Allowance $66,000 Rose Brier 3
KEE 04/15/2015 7 Allowance $60,000 Another Incident 1
KEE 04/16/2015 2 Maiden Special Weight $50,000 Deep in a Dream 5
KEE 04/16/2015 6 Maiden Special Weight $58,000 Rhiana's Candy 3
KEE 04/16/2015 7 Allowance $60,000 Caval 2
KEE 04/17/2015 8 Allowance $64,000 Verdura 7
KEE 04/17/2015 10 Maiden Special Weight $58,000 Hollywood Critic 1
CT 04/18/2015 10 Robert Hilton Memorial Stakes $100,000 To the Victor 5
CT 04/18/2015 12 Charles Town Classic Stakes - Gr. 2 $1,500,000 Street Babe 7
KEE 04/19/2015 4 Claiming $23,000 A. P. Corsair 5
KEE 04/19/2015 5 Allowance $60,000 Ascot Girl 6
KEE 04/19/2015 6 Maiden Special Weight $58,000 Pro Daddy 7
KEE 04/19/2015 7 Allowance $60,000 Maryanna Star 5
KEE 04/19/2015 8 Allowance $64,000 Iron Power 2
KEE 04/22/2015 1 Claiming $22,000 Ocean Alley 3
KEE 04/22/2015 2 Maiden Special Weight $50,000 Laxfield Road 1
KEE 04/22/2015 6 Allowance $60,000 Dance Champion 1
KEE 04/22/2015 7 Allowance $62,000 Carnevale (GB) 2
KEE 04/23/2015 2 Maiden Special Weight $58,000 Dating Lady Luck 1
KEE 04/23/2015 3 Maiden Special Weight $58,000 Tale of Verve 1
KEE 04/23/2015 4 Maiden Special Weight $58,000 Mighty Moon 1
KEE 04/23/2015 5 Maiden Special Weight $50,000 Finnegan (IRE) 2
KEE 04/23/2015 6 Allowance $60,000 Orange Grove (GB) 2
KEE 04/23/2015 8 Allowance $62,000 Mr. Jenney 5
KEE 04/23/2015 9 Maiden Special Weight $50,000 Wonderful Remark 3
KEE 04/24/2015 2 Maiden Claiming $22,000 Mr. Canada 5
KEE 04/24/2015 3 Allowance $60,000 Daring Duchess 4
KEE 04/24/2015 5 Maiden Special Weight $58,000 Honorable Duty 2
KEE 04/24/2015 7 Allowance $60,000 Al's Gal 2
KEE 04/24/2015 8 Allowance Optional Claiming $66,000 Sandbar 3
KEE 04/24/2015 9 Bewitch Stakes - Gr. 3 $150,000 Cay Dancer (GB) 2
AQU 04/25/2015 2 Maiden Special Weight $60,000 Esther the Queen 4
AQU 04/25/2015 5 Maiden Special Weight $60,000 Ack Feisty 7
AQU 04/26/2015 4 Maiden Special Weight $60,000 Sauvignon 6
BEL 04/29/2015 6 Allowance $77,000 Lady of Victory 3
BEL 04/29/2015 8 Elusive Quality Stakes $100,000 Mosler 1
BEL 04/29/2015 9 Maiden Special Weight $75,000 Fourth of July 2
BEL 04/30/2015 1 Maiden Claiming $29,000 Astron 3
BEL 04/30/2015 5 Claiming $48,000 No Surrender 2
CD 05/01/2015 1 Allowance Optional Claiming $67,000 Kathballu 3
CD 05/01/2015 2 Maiden Special Weight $62,000 Vouch for Kitten 4
CD 05/01/2015 3 Allowance Optional Claiming $67,000 Affect 6
CD 05/01/2015 4 Maiden Special Weight $62,000 The Strip 4
CD 05/01/2015 10 Eight Belles Stakes - Gr. 3 $200,000 Scat Means Go 3
CD 05/01/2015 11 Longines Kentucky Oaks - Gr. 1 $1,000,000 Condo Commando 9
CD 05/01/2015 12 Maiden Special Weight $62,000 Flying Jibe 11
CD 05/02/2015 2 Allowance Optional Claiming $67,000 Yockey's Warrior 4
CD 05/02/2015 5 Pat Day Mile Stakes - Gr. 3 $200,000 The Truth Or Else 5
CD 05/02/2015 6 American Turf Stakes - Gr. 2 $250,000 Luck of the Kitten 4
CD 05/02/2015 7 Humana Distaff Stakes - Gr. 1 $300,000 Thank You Marylou 6
CD 05/02/2015 8 Churchill Distaff Turf Mile Stakes - Gr. 2 $300,000 Personal Diary 7
CD 05/02/2015 10 Woodford Reserve Turf Classic Stakes - Gr. 1 $500,000 Seek Again 3
CD 05/02/2015 11 Kentucky Derby Presented by Yum! Brands - Gr. 1 $2,000,000 Frosted 4
CD 05/02/2015 12 Allowance Optional Claiming $67,000 Quality Bird 3
BEL 05/03/2015 1 Maiden Special Weight $75,000 Clearly Cheating 5
BEL 05/03/2015 3 Allowance Optional Claiming $77,000 Momameamaria 3
BEL 05/03/2015 5 Maiden Special Weight $75,000 Ice Cutter 2
BEL 05/03/2015 7 Allowance Optional Claiming $80,000 Sea Coast (IRE) 2
BEL 05/03/2015 9 Maiden Claiming $41,000 Laura's Patriot 1
BEL 05/06/2015 5 Claiming $53,000 Racing for Chasen 3
BEL 05/06/2015 8 Claiming $59,000 Mark My Style 5
BEL 05/07/2015 1 Maiden Special Weight $75,000 Back At the Ranch 1
BEL 05/07/2015 5 Allowance Optional Claiming $77,000 Belisarius (IRE) 3
BEL 05/07/2015 8 Allowance Optional Claiming $77,000 Weekend Express 7
BEL 05/07/2015 9 Maiden Special Weight $60,000 Sister Sophia 1
BEL 05/08/2015 1 Claiming $53,000 Bessie's Boy 1
BEL 05/08/2015 4 Allowance Optional Claiming $80,000 Tarnished 4
BEL 05/08/2015 5 Allowance Optional Claiming $77,000 Perfect Flute 2
BEL 05/08/2015 8 Allowance Optional Claiming $85,000 Modernstone (GB) 5
BEL 05/08/2015 9 Maiden Special Weight $60,000 Royal Asset 1
BEL 05/09/2015 2 Maiden Claiming $46,000 Jet Streak 7
BEL 05/09/2015 3 Peter Pan Stakes - Gr. 2 $200,000 Conquest Curlinate 2
BEL 05/09/2015 7 Beaugay Stakes - Gr. 3 $150,000 Radiator (GB) 6
BEL 05/09/2015 8 Allowance $62,000 Broadway Bay 5
BEL 05/09/2015 10 Maiden Special Weight $75,000 Senor Casanova 11
BEL 05/10/2015 4 Maiden Claiming $46,000 Ghost Swagger 4
BEL 05/10/2015 5 Maiden Special Weight $75,000 Nimble Foot (IRE) 3
BEL 05/10/2015 7 Allowance Optional Claiming $80,000 Smooth Daddy 6
BEL 05/13/2015 5 Allowance Optional Claiming $62,000 Skinner Box 6
BEL 05/13/2015 6 Maiden Special Weight $75,000 I'll Take Charge 2
BEL 05/13/2015 8 Allowance $77,000 Piloting 7
BEL 05/14/2015 5 Maiden Special Weight $75,000 Honorable Duty 3
BEL 05/14/2015 7 Claiming $48,000 Heat Flash 3
BEL 05/14/2015 8 Allowance Optional Claiming $85,000 Iron Power 2
PIM 05/15/2015 5 Hilltop Stakes $100,000 All in Fun 2
PIM 05/15/2015 14 Pimlico Special Stakes - Gr. 3 $300,000 Top Billing 4
PIM 05/16/2015 1 Maiden Special Weight $50,000 Finnegan (IRE) 1
PIM 05/16/2015 4 James W. Murphy Stakes $100,000 Force the Pass 2
PIM 05/16/2015 5 Maryland Sprint Handicap - Gr. 3 $150,000 Sandbar 1
PIM 05/16/2015 7 Sir Barton Stakes $100,000 Donworth 3
PIM 05/16/2015 8 Allowance Optional Claiming $55,000 Slip By 1
PIM 05/16/2015 9 Gallorette Handicap - Gr. 3 $150,000 Emotional Kitten 2
PIM 05/16/2015 10 Chick Lang Stakes $100,000 City of Vengeance 11
PIM 05/16/2015 11 The Very One Stakes $100,000 Shrinking Violet 3
PIM 05/16/2015 12 Longines Dixie Stakes - Gr. 2 $300,000 Long On Value 4
PIM 05/16/2015 13 Xpressbet.com Preakness Stakes - Gr. 1 $1,500,000 Tale of Verve 2
PIM 05/16/2015 14 Allowance $52,000 Old Upstart 1
BEL 05/17/2015 1 Claiming $34,000 Island Therapy 2
BEL 05/17/2015 2 Allowance Optional Claiming $62,000 Chasing Bubbles 7
BEL 05/17/2015 4 Maiden Special Weight $60,000 Bebop Raindrop 4
BEL 05/17/2015 5 Claiming $65,000 Goodtimehadbyall 4
BEL 05/17/2015 6 Maiden Special Weight $60,000 So Noted 2
BEL 05/17/2015 8 Allowance Optional Claiming $65,000 My Won Love 3
BEL 05/17/2015 9 Maiden Claiming $41,000 Rachel's Temper 4
BEL 05/20/2015 2 Maiden Claiming $29,000 Ghost Swagger 5
BEL 05/20/2015 6 Maiden Special Weight $60,000 Ack Feisty 5
BEL 05/20/2015 9 Maiden Special Weight $60,000 Celtic Sunrise 1
BEL 05/21/2015 1 Maiden Special Weight $75,000 Condo King 2
BEL 05/21/2015 3 Claiming $59,000 Racing for Chasen 5
BEL 05/21/2015 6 Starter Allowance $55,000 Artie Crasher 1
BEL 05/21/2015 7 Allowance $77,000 Hidden Vow 5
BEL 05/21/2015 8 Claiming $48,000 No Surrender 1
BEL 05/22/2015 1 Claiming $59,000 Darnley Bay 5
BEL 05/22/2015 3 Maiden Claiming $41,000 Mr. Canada 3
BEL 05/22/2015 7 Allowance Optional Claiming $77,000 The Truth Or Else 1
BEL 05/23/2015 1 Maiden Claiming $41,000 El Viejo Verde 2
BEL 05/23/2015 3 Allowance $77,000 Orient Harbor 5
BEL 05/23/2015 4 Maiden Claiming $32,000 Loose Money 6
BEL 05/23/2015 5 Claiming $47,000 Non Stop 8
BEL 05/23/2015 6 Allowance $62,000 Andromeda's Risk 9
BEL 05/23/2015 7 Starter Allowance $55,000 Special Ops 2
BEL 05/23/2015 8 Paradise Creek Stakes $100,000 Alex the Terror 5
BEL 05/23/2015 9 Maiden Special Weight $75,000 Groovy A 2
BEL 05/24/2015 1 Claiming $59,000 Jumpin Frac Flash 1
BEL 05/24/2015 2 Starter Allowance $55,000 Laura's Patriot 2
BEL 05/24/2015 3 Allowance Optional Claiming $90,000 Sky Girl 5
BEL 05/24/2015 4 Claiming $45,000 Culprit 4
BEL 05/24/2015 5 Claiming $40,000 Pop of Color 6
BEL 05/24/2015 6 Claiming $42,000 Mutasaawy 4
BEL 05/24/2015 7 Maiden Special Weight $75,000 Arbitrator 3
BEL 05/25/2015 1 Maiden Special Weight $70,000 Hundred Percent 6
BEL 05/25/2015 3 Commentator Stakes $200,000 Saratoga Snacks 3
BEL 05/25/2015 5 Mike Lee Stakes $125,000 Battle of Evermore 3
BEL 05/25/2015 6 Allowance $72,000 Masons Dream 6
BEL 05/25/2015 7 Bouwerie Stakes $125,000 The Lewis Dinner 6
BEL 05/25/2015 8 Kingston Stakes $125,000 King Kreesa 3
BEL 05/25/2015 9 Critical Eye Stakes $200,000 Easy Living 3
BEL 05/28/2015 3 Maiden Special Weight $75,000 Regia Marina 2
BEL 05/28/2015 4 Allowance Optional Claiming $80,000 Mr. Jenney 4
BEL 05/28/2015 5 Maiden Claiming $46,000 Rachel's Temper 1
BEL 05/28/2015 6 Claiming $47,000 Electro Peg 1
BEL 05/28/2015 7 Claiming $26,000 It'll Be Fine 8
BEL 05/28/2015 8 Allowance $77,000 Lady of Victory 6
BEL 05/29/2015 8 Allowance $77,000 Face the Music 1
BEL 05/30/2015 2 Allowance $77,000 Momameamaria 1
PEN 05/30/2015 3 Mountainview Handicap $200,000 Street Babe 9
PEN 05/30/2015 4 Penn Mile Stakes - Gr. 3 $500,000 Force the Pass 1
BEL 05/31/2015 2 Maiden Claiming $41,000 Prima Storm 3
BEL 05/31/2015 3 Allowance $77,000 Perfect Flute 8
BEL 05/31/2015 6 Wonder Again Stakes $200,000 Miss Chatelaine 6
BEL 05/31/2015 7 Claiming $40,000 Petrocelli 4
BEL 05/31/2015 8 Waiver Claiming $48,000 Runway Giant 2
BEL 05/31/2015 9 Maiden Claiming $41,000 Shake Things Up 2
BEL 06/04/2015 2 Allowance Optional Claiming $96,000 Wavell Avenue 1
BEL 06/04/2015 3 Astoria Stakes $250,000 Moment Is Right 1
BEL 06/04/2015 4 Maiden Special Weight $85,000 Que Chulo 7
BEL 06/04/2015 5 Allowance Optional Claiming $90,000 Belisarius (IRE) 2
BEL 06/04/2015 6 Allowance $75,000 Damage Control 1
BEL 06/04/2015 7 Intercontinental Stakes $150,000 Radiator (GB) 7
BEL 06/04/2015 8 Maiden Special Weight $85,000 Vouch for Kitten 2
BEL 06/05/2015 1 Allowance $90,000 Garden Princess 7
BEL 06/05/2015 5 Maiden Special Weight $85,000 Lieutenant Dale 9
BEL 06/05/2015 6 Allowance Optional Claiming $96,000 My Miss Sophia 1
BEL 06/05/2015 7 Maiden Special Weight $85,000 Lottery Ticket 6
BEL 06/05/2015 8 True North Stakes - Gr. 2 $250,000 Favorite Tale 5
BEL 06/05/2015 9 New York Stakes - Gr. 2 $300,000 Riposte (GB) 7
BEL 06/05/2015 10 Belmont Gold Cup Invitational Stakes $250,000 Reflecting 4
BEL 06/06/2015 2 Allowance $90,000 Gridley Here 4
BEL 06/06/2015 4 Jaipur Invitational Stakes - Gr. 3 $300,000 Mosler 6
BEL 06/06/2015 5 Ogden Phipps Stakes - Gr. 1 $1,000,000 Rosalind 4
BEL 06/06/2015 7 Acorn Stakes - Gr. 1 $750,000 Condo Commando 9
BEL 06/06/2015 8 Longines Just a Game Stakes - Gr. 1 $700,000 Filimbi 2
BEL 06/06/2015 9 NYRA.com Metropolitan Handicap - Gr. 1 $1,250,000 Wicked Strong 5
BEL 06/06/2015 10 Knob Creek Manhattan Stakes - Gr. 1 $1,000,000 Biz The Nurse (IRE) 10
BEL 06/06/2015 11 Belmont S. presented by DraftKings - Gr. 1 $1,500,000 Frosted 2
BEL 06/07/2015 1 Maiden Special Weight $75,000 Solan (IRE) 6
MTH 06/07/2015 11 Monmouth Stakes - Gr. 2 $200,000 Ghurair 5
BEL 06/10/2015 1 Maiden Claiming $41,000 Promise and Hope 5
BEL 06/10/2015 3 Claiming $47,000 Racing for Chasen 3
BEL 06/10/2015 5 Allowance Optional Claiming $80,000 Cabo Cat 5
BEL 06/10/2015 6 Claiming $48,000 Uncle Mitcho 5
BEL 06/10/2015 8 Allowance Optional Claiming $85,000 Iron Power 4
BEL 06/10/2015 9 Maiden Special Weight $60,000 First Service 7
BEL 06/11/2015 1 Maiden Special Weight $60,000 So Noted 3
BEL 06/12/2015 3 Claiming $34,000 No Herring 3
BEL 06/12/2015 6 Maiden Special Weight $60,000 Bebop Raindrop 4
BEL 06/12/2015 8 Allowance $77,000 Artie Crasher 8
BEL 06/13/2015 5 Poker Stakes - Gr. 3 $300,000 Long On Value 5
CD 06/13/2015 6 Regret Stakes - Gr. 3 $100,000 Urtheoneeyelove 6
CD 06/13/2015 7 Fleur de Lis Handicap - Gr. 2 $200,000 America 5
CD 06/13/2015 8 Stephen Foster Handicap - Gr. 1 $500,000 Lea 2
CD 06/13/2015 9 Matt Winn Stakes - Gr. 3 $100,000 Phenomenal Phoenix 7
BEL 06/21/2015 2 Maiden Claiming $29,000 Kiss the Road 4
BEL 06/21/2015 8 Allowance Optional Claiming $81,600 Changewilldoyagood 4
BEL 06/24/2015 4 Maiden Claiming $52,000 Mission Driven 1
BEL 06/24/2015 8 Allowance Optional Claiming $85,000 Sky Girl 6
BEL 06/25/2015 2 Maiden Claiming $41,000 Prima Storm 2
BEL 06/25/2015 4 Maiden Special Weight $60,000 Love That Jazz 2
BEL 06/25/2015 6 Maiden Claiming $41,000 Shake Things Up 1
BEL 06/25/2015 7 Allowance Optional Claiming $65,000 Tizquick 1
BEL 06/25/2015 9 Claiming $42,000 Arctic Slope 8
BEL 06/26/2015 6 Allowance Optional Claiming $80,000 Noble Cornerstone 1
BEL 06/26/2015 7 Maiden Special Weight $60,000 Manoffire 3
BEL 06/27/2015 1 Maiden Claiming $35,000 Mr. Canada 7
BEL 06/27/2015 4 Maiden Special Weight $75,000 Chomsky 2
BEL 06/27/2015 6 Allowance $77,000 Alex the Terror 5
BEL 06/27/2015 7 Claiming $42,000 Race and Shine 4
BEL 06/27/2015 9 Mother Goose Stakes - Gr. 1 $300,000 Chide 3
BEL 06/27/2015 10 Maiden Special Weight $75,000 Malibu Preacher 5
BEL 06/28/2015 1 Maiden Special Weight $75,000 I'll Take Charge 1
BEL 06/28/2015 2 Claiming $40,000 Yakov 6
BEL 06/28/2015 4 Maiden Special Weight $75,000 Little Schmo 2
BEL 06/28/2015 6 Allowance $77,000 Gridley Here 6
BEL 06/28/2015 7 Claiming $53,000 Chasing Bubbles 1
BEL 07/01/2015 2 Maiden Special Weight $75,000 Lottery Ticket 6
BEL 07/01/2015 7 Starter Allowance $55,000 Laura's Patriot 6
BEL 07/01/2015 8 Allowance Optional Claiming $80,000 Evidently 5
BEL 07/02/2015 3 Maiden Special Weight $75,000 Right Decision 5
BEL 07/02/2015 4 Maiden Special Weight $75,000 Awesome Dame 2
BEL 07/02/2015 5 Allowance Optional Claiming $65,000 Hidden Vow 7
BEL 07/02/2015 6 Allowance Optional Claiming $80,000 Smooth Daddy 5
BEL 07/02/2015 7 Claiming $40,000 Adrift 3
BEL 07/02/2015 8 Allowance Optional Claiming $85,000 Biz The Nurse (IRE) 4
BEL 07/03/2015 4 Maiden Claiming $41,000 Lirica Heat (ARG) 6
BEL 07/03/2015 6 Maiden Special Weight $60,000 Bellamy Way 1
BEL 07/03/2015 7 Allowance Optional Claiming $85,000 J to the Croft 6
BEL 07/03/2015 8 Perfect Sting Stakes $100,000 Emotional Kitten 4
BEL 07/04/2015 5 Allowance Optional Claiming $96,000 Thomas Hill 9
BEL 07/04/2015 8 Belmont Derby Invitational Stakes - Gr. 1 $1,250,000 Force the Pass 1
BEL 07/04/2015 9 Suburban Handicap - Gr. 2 $500,000 Street Babe 6
BEL 07/04/2015 10 Belmont Oaks Invitational Stakes - Gr. 1 $1,000,000 Sharla Rae 7
BEL 07/05/2015 1 Claiming $65,000 Yes for Success 2
BEL 07/05/2015 2 Claiming $34,000 Ruby's Rocketman 1
BEL 07/05/2015 3 Claiming $65,000 Jumpin Frac Flash 6
BEL 07/05/2015 6 Allowance $62,000 Point Roll 1
BEL 07/05/2015 8 River Memories Stakes $100,000 Dido 2
BEL 07/05/2015 9 Maiden Special Weight $60,000 Summersault 2
BEL 07/08/2015 2 Claiming $26,000 Unrepented 1
BEL 07/08/2015 5 Claiming $47,000 Sultry Cat 8
BEL 07/08/2015 6 Maiden Special Weight $60,000 Sauvignon 2
BEL 07/08/2015 7 Maiden Special Weight $75,000 Ice Cutter 1
BEL 07/08/2015 8 Allowance $77,000 Natural Order 7
BEL 07/09/2015 3 Maiden Special Weight $60,000 Wonderment 1
BEL 07/09/2015 6 Claiming $48,000 Americas Guest 6
BEL 07/09/2015 7 Allowance Optional Claiming $65,000 Wildniteattheopera 2
BEL 07/10/2015 1 Claiming $28,000 No Herring 6
BEL 07/10/2015 3 Maiden Special Weight $75,000 Groovy A 4
BEL 07/10/2015 7 Claiming $59,000 Goodtimehadbyall 1
BEL 07/11/2015 1 Maiden Special Weight $60,000 The J Y 5
BEL 07/11/2015 2 Allowance $75,000 Tap It Out 3
BEL 07/11/2015 3 Maiden Special Weight $75,000 Tale Stone 6
BEL 07/11/2015 4 Allowance $62,000 Island Therapy 6
BEL 07/11/2015 6 Maiden Claiming $41,000 Edaway 11
BEL 07/11/2015 8 Allowance $75,000 Indebted 1
BEL 07/11/2015 9 Forbidden Apple Stakes $150,000 Wicked Strong 2
BEL 07/11/2015 10 Claiming $40,000 Welcome Speech 5
BEL 07/12/2015 1 Maiden Special Weight $60,000 So Noted 1
BEL 07/12/2015 2 Claiming $25,000 Springcourt 2
BEL 07/12/2015 3 Allowance Optional Claiming $80,000 Top Billing 4
BEL 07/12/2015 5 Allowance Optional Claiming $68,000 Rumble Doll 2
BEL 07/12/2015 6 Maiden Special Weight $75,000 The Strip 5
BEL 07/12/2015 8 Allowance $62,000 Royal Asset 1
DEL 07/18/2015 10 Delaware Handicap - Gr. 1 $750,000 Rosalind 5
BEL 07/19/2015 4 Lynbrook Stakes $125,000 Bag of Tricks 3
BEL 07/19/2015 5 Maiden Special Weight $75,000 Hammers Vision 1
BEL 07/19/2015 6 Maiden Claiming $41,000 Ragazza Piu' Bella 1
BEL 07/19/2015 10 Maiden Claiming $41,000 Spanish Armada 5
SAR 07/24/2015 2 Maiden Special Weight $73,000 Flatware 4
SAR 07/24/2015 4 Schuylerville Stakes - Gr. 3 $150,000 Moment Is Right 4
SAR 07/24/2015 5 Claiming $45,000 Race and Shine 9
SAR 07/24/2015 6 Maiden Special Weight $83,000 Ready for Chianti 10
SAR 07/24/2015 7 Allowance $85,000 Dating Lady Luck 2
SAR 07/24/2015 9 Lake George Stakes - Gr. 2 $200,000 All in Fun 5
SAR 07/25/2015 1 Maiden Special Weight $83,000 Hundred Years 5
SAR 07/25/2015 2 Allowance $85,000 Artie Crasher 4
SAR 07/25/2015 3 Maiden Special Weight $83,000 Little Schmo 10
SAR 07/25/2015 5 Maiden Special Weight $83,000 Horner Man 6
SAR 07/25/2015 7 Allowance $85,000 Paid Up Subscriber 1
SAR 07/25/2015 8 Allowance Optional Claiming $90,000 Taghleeb 3
SAR 07/25/2015 9 Sanford Stakes - Gr. 3 $150,000 He's Comin in Hot 5
SAR 07/25/2015 10 Diana Stakes - Gr. 1 $500,000 My Miss Sophia 4
SAR 07/25/2015 11 Claiming $67,000 Sailmate 6
SAR 07/26/2015 3 Claiming $50,000 Liberty First 2
SAR 07/26/2015 6 Maiden Special Weight $83,000 Love the Kitten 5
SAR 07/26/2015 7 Allowance Optional Claiming $78,000 Global Positioning 6
SAR 07/26/2015 8 Allowance $85,000 Tacticus 4
SAR 07/26/2015 9 Maiden Special Weight $83,000 Wings of Prayer 5
SAR 07/26/2015 10 Coaching Club American Oaks - Gr. 1 $300,000 Chide 5
SAR 07/26/2015 11 Starter Allowance $55,000 Mission Driven 3
SAR 07/27/2015 1 Maiden Claiming $35,000 Zoetic 6
SAR 07/27/2015 4 Maiden Special Weight $83,000 Right Decision 2
SAR 07/27/2015 5 Allowance Optional Claiming $90,000 Another Incident 4
SAR 07/27/2015 7 Lucky Coin Stakes $100,000 Spring to the Sky 5
SAR 07/27/2015 8 Allowance $75,000 Moonlit Sonnet 11
SAR 07/29/2015 4 Honorable Miss Handicap - Gr. 2 $200,000 Judy the Beauty 2
SAR 07/29/2015 5 Starter Allowance $55,000 Yes for Success 5
SAR 07/29/2015 7 Maiden Special Weight $73,000 Fourstar Crook 4
SAR 07/29/2015 8 Allowance $75,000 Battle of Evermore 7
SAR 07/30/2015 3 Maiden Special Weight $73,000 Threeskills 7
SAR 07/30/2015 4 John Morrissey Stakes $100,000 Noble Cornerstone 4
SAR 07/30/2015 6 Claiming $67,000 Tizsational 4
SAR 07/30/2015 7 Claiming $56,400 Pop of Color 6
SAR 07/31/2015 2 Maiden Claiming $45,000 Killarney Rose 1
SAR 07/31/2015 5 Maiden Special Weight $83,000 Arbitrator 6
SAR 07/31/2015 6 Allowance Optional Claiming $90,000 Heyaarat 2
SAR 07/31/2015 7 Maiden Special Weight $83,000 Chomsky 5
SAR 07/31/2015 8 Allowance Optional Claiming $90,000 Pure Sensation 1
SAR 08/01/2015 1 Claiming $59,000 Dreams Cut Short 2
SAR 08/01/2015 2 Maiden Special Weight $83,000 Sticksstatelydude 1
SAR 08/01/2015 4 Maiden Special Weight $83,000 Vouch for Kitten 8
SAR 08/01/2015 6 Allowance $85,000 Gustnado 5
SAR 08/01/2015 7 Allowance $85,000 Generous Kitten 9
SAR 08/01/2015 8 Alfred G. Vanderbilt Handicap - Gr. 1 $350,000 Departing 7
SAR 08/01/2015 9 Bowling Green Handicap - Gr. 2 $250,000 Dramedy 8
SAR 08/01/2015 10 Jim Dandy Stakes - Gr. 2 $600,000 Frosted 2
SAR 08/02/2015 1 Maiden Special Weight $73,000 Too Discreet 1
SAR 08/02/2015 2 Maiden Special Weight $83,000 Awesome Dame 2
SAR 08/02/2015 3 Caress Stakes $100,000 Free as a Bird 2
SAR 08/02/2015 4 Allowance $85,000 Mobilize 7
SAR 08/02/2015 7 Maiden Special Weight $73,000 Apollo Eleven 8
SAR 08/02/2015 8 Allowance $75,000 So Noted 1
SAR 08/02/2015 11 Claiming $50,000 Days Ride 6
SAR 08/03/2015 6 Allowance $85,000 Orient Harbor 2
SAR 08/03/2015 7 Allowance Optional Claiming $78,000 Point Roll 11
SAR 08/03/2015 9 Coronation Cup Stakes $100,000 Miss Ella 2
SAR 08/03/2015 10 Maiden Claiming $45,000 Kitty Kat 10
SAR 08/05/2015 2 Claiming $25,000 Petrocelli 3
SAR 08/05/2015 4 Maiden Special Weight $73,000 Hirschbein 6
SAR 08/05/2015 5 Claiming $47,000 Downgoesfrazier 5
SAR 08/05/2015 7 Maiden Special Weight $83,000 Vacation Spot 2
SAR 08/05/2015 8 Allowance Optional Claiming $93,000 La Madrina 5
SAR 08/05/2015 9 Shine Again Stakes $100,000 Wavell Avenue 4
SAR 08/06/2015 4 Claiming $50,000 Ave's Halo 1
SAR 08/06/2015 6 Allowance Optional Claiming $93,000 Montclair (IRE) 4
SAR 08/06/2015 7 Maiden Claiming $56,000 Jemmabelle 8
SAR 08/06/2015 9 Quick Call Stakes $100,000 The Great War 2
SAR 08/07/2015 1 Claiming $28,000 Ruby's Rocketman 6
SAR 08/07/2015 4 Maiden Special Weight $83,000 Watershed 1
SAR 08/07/2015 5 Allowance Optional Claiming $85,000 Gap Year 2
SAR 08/07/2015 7 Claiming $51,000 Whoopie Pie 8
SAR 08/07/2015 8 Allowance Optional Claiming $90,000 Love and Marriage 3
SAR 08/07/2015 9 National Museum of Racing Hall of Fame Stakes - Gr. 2 $200,000 Courtier 3
SAR 08/07/2015 10 Claiming $47,000 Jademarie 7
SAR 08/08/2015 2 Maiden Special Weight $83,000 Acoustic 9
SAR 08/08/2015 3 Maiden Special Weight $83,000 Deserved 4
SAR 08/08/2015 5 Maiden Special Weight $83,000 Infinite Wisdom 2
SAR 08/08/2015 9 Whitney Stakes - Gr. 1 $1,250,000 Lea 6
SAR 08/08/2015 11 Allowance $75,000 Bella Kateri 1
SAR 08/09/2015 4 Allowance $85,000 Tizquick 6
SAR 08/09/2015 6 Maiden Special Weight $83,000 Louise the Laser 10
SAR 08/09/2015 9 Alydar Stakes $100,000 Bay of Plenty 1
SAR 08/09/2015 10 Allowance Optional Claiming $85,000 Unbridled Sonya 5
SAR 08/09/2015 11 Claiming $67,000 Mexican Groove 4
SAR 08/10/2015 1 Maiden Special Weight $73,000 Mind Your Biscuits 2
SAR 08/10/2015 2 Claiming $67,000 Goodtimehadbyall 4
SAR 08/10/2015 4 Allowance $75,000 Bellamy Way 2
SAR 08/10/2015 5 Maiden Claiming $45,000 Deep Consideration 3
SAR 08/10/2015 6 Allowance Optional Claiming $78,000 Devious Maddy 5
SAR 08/10/2015 7 Allowance Optional Claiming $78,000 Royal Asset 1
SAR 08/10/2015 9 Maiden Claiming $45,000 Sanfiera 2
SAR 08/12/2015 4 Claiming $62,000 Alex the Terror 2
SAR 08/12/2015 7 Allowance Optional Claiming $78,000 Rumble Doll 1
SAR 08/12/2015 8 Birdstone Stakes $100,000 Tacticus 1
SAR 08/12/2015 9 Allowance Optional Claiming $90,000 Radiator (GB) 3
SAR 08/13/2015 2 Starter Allowance $55,000 Ragazza Piu' Bella 4
SAR 08/13/2015 4 Claiming $50,000 Concealedwithakiss 5
SAR 08/13/2015 5 Allowance Optional Claiming $90,000 Iroquois Girl 3
SAR 08/13/2015 6 Maiden Claiming $45,000 Ten Penny Princess 2
SAR 08/13/2015 7 Allowance $85,000 I'll Take Charge 3
SAR 08/13/2015 10 Maiden Claiming $37,000 Bird Humor 5
SAR 08/14/2015 4 Maiden Special Weight $73,000 Elusive New Yorker 6
SAR 08/14/2015 9 Maker's Mark Lake Placid Stakes - Gr. 2 $300,000 Sentiero Italia 1
SAR 08/14/2015 10 Maiden Special Weight $73,000 Sauvignon 3
AP 08/15/2015 6 Pucker Up Stakes - Gr. 3 $100,000 Miss Chatelaine 6
AP 08/15/2015 7 American St. Leger Stakes - Gr. 3 $350,000 Roman Approval 4
AP 08/15/2015 8 Secretariat Stakes - Gr. 1 $450,000 Force the Pass 3
SAR 08/16/2015 4 Maiden Special Weight $83,000 Silent Assassin 7
SAR 08/16/2015 6 Maiden Special Weight $83,000 Tap to It 1
SAR 08/16/2015 8 Allowance $75,000 Laura's Patriot 8
SAR 08/16/2015 9 Saratoga Special Stakes - Gr. 2 $200,000 Hammers Vision 3
SAR 08/19/2015 2 Maiden Special Weight $73,000 Governor Malibu 2
SAR 08/19/2015 3 Bolton Landing Stakes $100,000 Laxfield Road 3
SAR 08/19/2015 5 Maiden Special Weight $83,000 Little Schmo 9
SAR 08/19/2015 8 Starter Allowance $55,000 Yes for Success 4
SAR 08/20/2015 2 Allowance $75,000 He Has Charm 5
SAR 08/20/2015 4 Maiden Claiming $45,000 Our Independence 1
SAR 08/20/2015 5 Maiden Special Weight $83,000 Right Decision 3
SAR 08/20/2015 6 Allowance Optional Claiming $78,000 Changewilldoyagood 6
SAR 08/20/2015 7 Maiden Special Weight $73,000 Head Shrinker 10
SAR 08/20/2015 8 Allowance $85,000 Rare Eagle 7
SAR 08/20/2015 9 Union Avenue Stakes $100,000 Willet 2
SAR 08/21/2015 3 Allowance Optional Claiming $90,000 Another Incident 3
SAR 08/21/2015 5 Allowance Optional Claiming $78,000 Saratoga Dreamer 1
SAR 08/21/2015 7 Allowance $75,000 Manoffire 1
SAR 08/21/2015 8 Claiming $62,000 Scatter Joy 5
SAR 08/21/2015 9 Schenectady Stakes $100,000 Too Discreet 1
SAR 08/21/2015 10 Maiden Special Weight $83,000 Bokeelia Island 2
DMR 08/22/2015 6 Allowance Optional Claiming $78,000 Procurement 8
DMR 08/22/2015 7 Maiden Special Weight $70,000 Tiz a Tommy Town 3
DMR 08/22/2015 8 Del Mar Handicap - Gr. 2 $250,000 Danas Best (AUS) 5
DMR 08/22/2015 9 $1 Million TVG Pacific Classic Stakes - Gr. 1 $1,000,000 Red Vine 3
DMR 08/22/2015 10 Allowance $72,000 Mal Verde 3
WO 08/23/2015 8 Play the King Stakes - Gr. 2 $200,000 Bobby's Kitten 7
SAR 08/24/2015 1 Maiden Special Weight $73,000 Flatware 3
SAR 08/24/2015 5 Allowance $85,000 Dating Lady Luck 3
SAR 08/24/2015 7 Allowance Optional Claiming $78,000 Wildniteattheopera 6
SAR 08/24/2015 8 Summer Colony Stakes $100,000 Montana Native 5
SAR 08/26/2015 2 Maiden Special Weight $83,000 Fired Up Sensation 4
SAR 08/26/2015 3 Maiden Claiming $52,000 Threeskills 6
SAR 08/26/2015 7 Claiming $50,000 Mills 6
SAR 08/26/2015 8 Allowance Optional Claiming $93,000 Wavell Avenue 1
SAR 08/27/2015 6 Allowance Optional Claiming $93,000 Hesinfront 5
SAR 08/27/2015 7 Claiming $47,000 Rachel's Temper 4
SAR 08/27/2015 8 Riskaverse Stakes $100,000 All in Fun 6
SAR 08/27/2015 10 Maiden Claiming $39,000 Spartan Emperor 4
SAR 08/28/2015 10 Albany Stakes $250,000 Bellamy Way 3
SAR 08/29/2015 1 Allowance Optional Claiming $95,000 Belisarius (IRE) 1
SAR 08/29/2015 2 Maiden Special Weight $93,000 Sail Ahoy 3
SAR 08/29/2015 3 Allowance $95,000 Unbridled Sonya 8
SAR 08/29/2015 4 Maiden Special Weight $93,000 Doolittle Raiders 9
SAR 08/29/2015 7 Ballerina Stakes - Gr. 1 $500,000 Merry Meadow 7
SAR 08/29/2015 8 NYRA.com King's Bishop Stakes - Gr. 1 $500,000 Watershed 4
SAR 08/29/2015 9 Priority One Jets Forego Stakes - Gr. 1 $700,000 Bourbon Courage 12
SAR 09/02/2015 3 With Anticipation Stakes - Gr. 2 $200,000 Next Shares 2
SAR 09/02/2015 5 Maiden Claiming $45,000 Sanfiera 6
SAR 09/02/2015 6 Claiming $47,000 Downgoesfrazier 5
SAR 09/02/2015 8 Claiming $51,000 Marvino 8
SAR 09/02/2015 10 Claiming $47,000 Trecastle 4
SAR 09/03/2015 2 Allowance $75,000 Battle of Evermore 5
SAR 09/03/2015 5 Maiden Claiming $45,000 She's All Even 1
SAR 09/03/2015 6 Maiden Special Weight $83,000 Basic Hero 9
SAR 09/03/2015 8 Allowance Optional Claiming $93,000 Noble Cornerstone 3
SAR 09/03/2015 9 Allowance Optional Claiming $78,000 Bella Kateri 5
SAR 09/03/2015 10 Maiden Claiming $45,000 Ten Penny Princess 2
SAR 09/04/2015 2 Maiden Claiming $37,000 Bird Humor 3
SAR 09/04/2015 3 Allowance Optional Claiming $78,000 Devious Maddy 5
SAR 09/04/2015 7 Maiden Special Weight $73,000 Mind Your Biscuits 2
SAR 09/04/2015 9 Allowance Optional Claiming $90,000 Iroquois Girl 1
SAR 09/04/2015 10 Maiden Claiming $45,000 Hirschbein 1
SAR 09/05/2015 2 Maiden Special Weight $83,000 War Order 2
SAR 09/05/2015 4 Maiden Special Weight $83,000 Add Four 6
SAR 09/05/2015 6 Allowance $85,000 Gustnado 5
SAR 09/05/2015 8 Saranac Stakes - Gr. 3 $300,000 World Approval 1
SAR 09/05/2015 9 Spinaway Stakes - Gr. 1 $350,000 Tap to It 2
SAR 09/05/2015 10 Woodward Stakes - Gr. 1 $600,000 Bay of Plenty 6
SAR 09/05/2015 11 Glens Falls Stakes - Gr. 3 $200,000 Bocaiuva (IRE) 8
SAR 09/05/2015 12 Allowance Optional Claiming $90,000 Hollywood Idol 4
SAR 09/06/2015 2 Maiden Claiming $54,000 Taleofsixtythree 1
SAR 09/06/2015 5 Claiming $40,000 Rockford 2
SAR 09/06/2015 6 Maiden Special Weight $83,000 Sherini 4
SAR 09/06/2015 7 Claiming $45,000 The Comish 1
SAR 09/06/2015 9 Allowance $75,000 Pink Freud Live 8
SAR 09/06/2015 10 Prioress Stakes - Gr. 2 $300,000 Paid Up Subscriber 4
SAR 09/06/2015 11 Maiden Special Weight $73,000 Sauvignon 6
SAR 09/07/2015 2 Maiden Special Weight $73,000 Night Madam 5
SAR 09/07/2015